Location: Krasnoyarskiy Pitomnik
(51.1333°N, 71.6167°E)
Time: 15:30:16
(UTC+00:00)

Cosmos 2278 - Pass Details

Date: 22 October 2021
Orbit: 838 x 854 km, 71.1° (Epoch: 26 November)

Event Time Altitude Azimuth Distance (km) Brightness Sun altitude
Rises 13:00:28 0° 200° (SSW) 3,391 7.2 -9.1°
Reaches altitude 10° 13:02:55 10° 198° (SSW) 2,462 6.5 -9.5°
Maximum altitude 13:08:32 71° 116° (ESE) 897 3.7 -10.4°
Drops below altitude 10° 13:14:13 10° 33° (NNE) 2,489 5.8 -11.3°
Sets 13:16:41 0° 32° (NNE) 3,431 6.5 -11.7°
